User: anonymous   Login
Location: Seasalter
(51.3333°N, 1.0167°E)
Time: 16:11:30
(UTC+00:00)
Language:

Cosmos 2333 Rocket - Orbit

View from above orbital plane
View from above orbital plane
View from above satellite
View from above satellite

Ground track
Ground track

The orbit data is extracted from the following two-line orbital elements,

1 24298U 96051B   24063.84820263 -.00000171  00000-0 -65924-4 0  9995
2 24298  70.8133 291.2060 0014710 147.5229 212.6799 14.12498652417743
Epoch (UTC): 03 March 2024 20:21:24
Eccentricity: 0.0014710
inclination: 70.8133°
perigee height: 840 km
apogee height: 861 km
right ascension of ascending node: 291.2060°
argument of perigee: 147.5229°
revolutions per day: 14.12498652
mean anomaly at epoch: 212.6799°
orbit number at epoch: 41774

The dashed part of the orbit path shows where the satellite is in the earth's shadow,  

DLR